[[{"header":{"parameterUnit":"m.s-1","parameterCategory":1,"la1":30.2991,"la2":30.254,"lo1":-89.0895,"lo2":-89.0444,"dy":0.0017,"dx":0.0017,"nx":28,"ny":28,"refTime":"2025-05-25T21:00:00:Z","depth":0,"parameterNumber":2,"parameterNumberName":"U-component_of_WINDS"},"data":[0,0,0,0,0,0,0,0,0,0,0,0,0,0,0,0,0,0,0,0,0,0,0,0,0,0,0,0,0,0,0,0,0,0,0,0,0,0,0,0,0,0,0,0,0,0,0,0,0,0,0,0,0,0,0,0,0,0,0.7617,0.7618,0,0.7645,0.7645,0.7645,0.7659,0.7659,0.7659,0.7659,0.7685,0.7686,0.7686,0,0,0,0,0,0,0,0,0,0,0,0,0,0.7575,0.7576,0.7617,0.7618,0.7618,0.7645,0.7645,0.7645,0.7659,0.7659,0.7659,0.7659,0.7685,0.7686,0.7686,0,0,0,0,0,0,0,0,0,0,0,0,0,0.7597,0.7576,0.7617,0.7628,0.763,0.7644,0.7645,0.7645,0.7659,0.7659,0.7659,0.7659,0.7685,0.7686,0.7687,0.7692,0,0,0.769,0.769,0,0,0,0,0,0,0,0,0.7596,0.7598,0.7626,0.7628,0.7629,0.7649,0.7639,0.7661,0.7659,0.7648,0.7659,0.7659,0.7673,0.7675,0.768,0.7693,0.7694,0.769,0.769,0.7691,0.7691,0,0,0,0,0,0,0,0.7594,0.7597,0.7628,0.7627,0.7628,0.7631,0.7634,0.7644,0.766,0.7649,0.765,0.7653,0.7673,0.7679,0.768,0.7695,0.769,0.769,0.7691,0.7691,0.7714,0.7714,0,0,0,0,0,0,0.7591,0.7596,0.7627,0.7629,0.7612,0.7632,0.7635,0.7642,0.766,0.7662,0.7653,0.7654,0.7677,0.7679,0.7681,0.7689,0.7691,0.7692,0.7692,0.7714,0.7714,0.7714,0,0,0,0,0,0,0.759,0.7594,0.7626,0.7613,0.7617,0.7633,0.764,0.7643,0.7648,0.7663,0.7666,0.7656,0.7677,0.768,0.7689,0.769,0.7692,0.7693,0.7714,0.7714,0.7714,0.7704,0,0,0,0,0,0,0.7589,0.7593,0.7596,0.7613,0.7618,0.7634,0.764,0.7643,0.765,0.7651,0.7666,0.7668,0.7677,0.7688,0.769,0.7692,0.7694,0.7714,0.7714,0.7714,0.7705,0.7704,0.7703,0,0,0,0,0,0.7587,0.7592,0.7596,0.76,0.7622,0.7634,0.7637,0.7648,0.765,0.7653,0.7662,0.7668,0.769,0.7689,0.7692,0.7693,0.7714,0.7714,0.7714,0.7705,0.7704,0.7703,0,0,0,0,0,0,0.7574,0.7594,0.7599,0.7609,0.762,0.7637,0.764,0.7647,0.7656,0.7657,0.7669,0.7672,0.7681,0.7688,0.7686,0.7699,0.7702,0.7703,0.7694,0.7694,0.7693,0.7691,0.7695,0,0,0,0,0,0.7572,0.7581,0.7598,0.7605,0.7611,0.7624,0.763,0.7638,0.7649,0.7654,0.7664,0.7674,0.7683,0.7689,0.7698,0.7706,0.7709,0.7708,0.7707,0.7707,0.7707,0.7712,0.7712,0.7714,0.7714,0.7714,0,0,0.7568,0.758,0.7585,0.7603,0.7612,0.7621,0.7628,0.7637,0.7644,0.7655,0.7665,0.7672,0.7684,0.7693,0.7697,0.7699,0.7707,0.7707,0.7706,0.7707,0.7712,0.7712,0.7712,0.7714,0.7714,0.7714,0,0,0.7566,0.7576,0.7584,0.7593,0.7607,0.7617,0.7618,0.7634,0.764,0.765,0.7659,0.7666,0.7682,0.769,0.7696,0.7698,0.7704,0.77,0.7697,0.7702,0.7701,0.7701,0.7702,0.7702,0.7701,0.7701,0.7701,0,0.7559,0.7574,0.7586,0.7595,0.7602,0.7614,0.7621,0.7629,0.7645,0.765,0.7652,0.7672,0.7681,0.7691,0.7692,0.7697,0.7699,0.7699,0.7701,0.7701,0.7701,0.7701,0.7702,0.77,0.77,0.77,0.77,0,0.7565,0.7575,0.7579,0.7595,0.7603,0.7611,0.7624,0.763,0.7637,0.7646,0.7656,0.7667,0.7679,0.7682,0.7688,0.7694,0.7694,0.7698,0.7702,0.77,0.7701,0.7701,0.7699,0.77,0.77,0.77,0,0,0.7554,0.7578,0.758,0.7587,0.7604,0.7612,0.762,0.7632,0.7637,0.7648,0.7655,0.7668,0.7672,0.7679,0.7686,0.769,0.7691,0.7694,0.7694,0.7693,0.7698,0.7695,0.7695,0.7695,0.7695,0.7695,0.7697,0,0.7555,0.7571,0.7583,0.7594,0.7603,0.7614,0.7622,0.7632,0.7641,0.7649,0.7658,0.7667,0.7672,0.7676,0.768,0.769,0.7692,0.769,0.7701,0.7701,0.7698,0.7695,0.7692,0.7693,0.7697,0.7697,0.7697,0,0.7557,0.7569,0.7581,0.7598,0.7602,0.7608,0.7621,0.7629,0.7641,0.7647,0.7655,0.7663,0.7671,0.7674,0.7686,0.7684,0.7689,0.7695,0.7695,0.7696,0.7699,0.7697,0.7694,0.7694,0.7698,0.7698,0.7698,0,0.7548,0.7567,0.7577,0.7583,0.7603,0.7607,0.7615,0.7627,0.7634,0.7645,0.7649,0.766,0.7666,0.7674,0.7685,0.7686,0.7695,0.7699,0.77,0.77,0.7702,0.7701,0.77,0.7705,0.7705,0.7705,0.7705,0,0.7547,0.7555,0.7574,0.758,0.7588,0.7601,0.7609,0.7618,0.7629,0.7636,0.7646,0.7653,0.7666,0.7675,0.7683,0.7691,0.7694,0.7699,0.7701,0.7698,0.7697,0.7701,0.7702,0.7705,0.7705,0.7705,0.7705,0,0.7539,0.7552,0.7564,0.7582,0.7586,0.7592,0.7606,0.7612,0.7622,0.7631,0.7634,0.7648,0.7658,0.767,0.7683,0.7689,0.7697,0.77,0.7693,0.7694,0.7695,0.7695,0.7696,0.7697,0.7701,0.7701,0.7701,0,0.7538,0.7544,0.7562,0.7569,0.7577,0.7587,0.7594,0.7607,0.7614,0.7629,0.7633,0.7644,0.7654,0.767,0.7681,0.7691,0.7695,0.7694,0.7696,0.7693,0.7695,0.7694,0.7695,0.7693,0.7693,0.7693,0.7693,0,0.7534,0.754,0.7551,0.7564,0.7573,0.7583,0.7594,0.7599,0.7613,0.7621,0.7632,0.764,0.7654,0.7665,0.7677,0.7685,0.7691,0.7693,0.7694,0.7691,0.7686,0.7689,0.7692,0.7692,0.7693,0.7693,0.7693,0.7693,0.7529,0.7535,0.7549,0.7561,0.7571,0.7581,0.7588,0.7598,0.7608,0.7622,0.7628,0.7639,0.7651,0.7669,0.7676,0.7684,0.7686,0.7688,0.7688,0.7688,0.7687,0.7685,0.7686,0.7686,0.7687,0.7687,0.7687,0,0.7525,0.7535,0.7546,0.7562,0.7571,0.7577,0.759,0.7597,0.7607,0.7618,0.7627,0.764,0.7651,0.7663,0.7675,0.7679,0.7682,0.7681,0.7681,0.7683,0.7685,0.7683,0.7679,0.7679,0.7679,0.7679,0.7679,0.7679,0.7525,0.7536,0.7544,0.7559,0.7569,0.7581,0.7587,0.7596,0.7606,0.762,0.7629,0.7637,0.7649,0.7661,0.7671,0.7674,0.7678,0.7676,0.768,0.7682,0.7683,0.7683,0.7682,0.7677,0.7677,0.7678,0.7678,0.7678]},{"header":{"parameterUnit":"m.s-1","parameterCategory":1,"la1":30.2991,"la2":30.254,"lo1":-89.0895,"lo2":-89.0444,"dy":0.0017,"dx":0.0017,"nx":28,"ny":28,"refTime":"2025-05-25T21:00:00:Z","depth":0,"parameterNumber":3,"parameterNumberName":"V-component_of_WINDS"},"data":[0,0,0,0,0,0,0,0,0,0,0,0,0,0,0,0,0,0,0,0,0,0,0,0,0,0,0,0,0,0,0,0,0,0,0,0,0,0,0,0,0,0,0,0,0,0,0,0,0,0,0,0,0,0,0,0,0,0,2.7169,2.7169,0,2.7207,2.7207,2.7207,2.7199,2.7198,2.7198,2.7197,2.7231,2.7233,2.7235,0,0,0,0,0,0,0,0,0,0,0,0,0,2.7085,2.7087,2.7169,2.7169,2.717,2.7206,2.7207,2.7207,2.7199,2.7198,2.7198,2.7197,2.7231,2.7233,2.7235,0,0,0,0,0,0,0,0,0,0,0,0,0,2.7122,2.7087,2.7168,2.717,2.717,2.7206,2.7207,2.7208,2.7199,2.7198,2.7197,2.7196,2.723,2.7233,2.7235,2.727,0,0,2.7242,2.7243,0,0,0,0,0,0,0,0,2.712,2.7125,2.7169,2.717,2.7171,2.7197,2.719,2.7228,2.72,2.7188,2.7197,2.7196,2.7221,2.7224,2.7233,2.7272,2.7273,2.7242,2.7244,2.7245,2.7245,0,0,0,0,0,0,0,2.7117,2.7123,2.7183,2.717,2.7171,2.7168,2.7172,2.7197,2.721,2.7189,2.7189,2.7194,2.7221,2.7231,2.7234,2.7274,2.7242,2.7244,2.7246,2.7247,2.7345,2.7346,0,0,0,0,0,0,2.7115,2.7121,2.7182,2.7185,2.7142,2.717,2.7174,2.719,2.7209,2.7212,2.7194,2.7193,2.7227,2.7231,2.7235,2.7278,2.7245,2.7247,2.7248,2.7344,2.7345,2.7346,0,0,0,0,0,0,2.7113,2.712,2.7181,2.7153,2.716,2.7172,2.7189,2.7191,2.7201,2.7213,2.7215,2.7203,2.7226,2.7232,2.7262,2.7279,2.7248,2.725,2.7342,2.7344,2.7346,2.7365,0,0,0,0,0,0,2.7111,2.712,2.7134,2.7153,2.7162,2.7208,2.7191,2.7192,2.7206,2.7204,2.7222,2.7223,2.7226,2.7259,2.7264,2.7282,2.7252,2.7341,2.7343,2.7345,2.7363,2.7368,2.7371,0,0,0,0,0,2.7108,2.7137,2.7135,2.7142,2.718,2.7209,2.7214,2.7218,2.7207,2.7221,2.7229,2.7223,2.7277,2.7262,2.7268,2.7287,2.734,2.7342,2.7345,2.7361,2.7367,2.7371,0,0,0,0,0,0,2.7117,2.7139,2.7137,2.7174,2.719,2.7208,2.7226,2.7223,2.7242,2.7239,2.7242,2.7246,2.7277,2.7285,2.7268,2.7323,2.7306,2.731,2.7317,2.7322,2.7326,2.7323,2.7254,0,0,0,0,0,2.7124,2.7148,2.7165,2.7195,2.7204,2.7214,2.7226,2.7228,2.7244,2.7251,2.7261,2.7276,2.7296,2.7309,2.7329,2.7364,2.7368,2.738,2.7384,2.7388,2.7391,2.7412,2.7417,2.7355,2.7355,2.7355,0,0,2.7138,2.7153,2.7167,2.7198,2.721,2.7234,2.7219,2.7244,2.7261,2.7254,2.7284,2.7292,2.7309,2.7343,2.7358,2.735,2.7409,2.7391,2.7394,2.7395,2.7415,2.7421,2.7426,2.7357,2.7357,2.7356,0,0,2.7174,2.7188,2.7215,2.7229,2.7249,2.7256,2.7263,2.7281,2.7287,2.7318,2.7313,2.7333,2.7368,2.738,2.7391,2.7434,2.7429,2.744,2.7461,2.7481,2.7486,2.749,2.7506,2.7512,2.7443,2.7443,2.7443,0,2.7188,2.7224,2.7229,2.7255,2.7269,2.7266,2.7293,2.7306,2.733,2.734,2.7331,2.7375,2.7386,2.7423,2.7434,2.7443,2.745,2.7438,2.7485,2.7489,2.7493,2.7509,2.7515,2.7445,2.7444,2.7444,2.7444,0,2.724,2.7265,2.7285,2.7312,2.7327,2.7354,2.7362,2.7377,2.7378,2.7385,2.7417,2.743,2.7452,2.7461,2.7461,2.7498,2.7493,2.7484,2.7468,2.7501,2.7515,2.7521,2.7446,2.7446,2.7446,2.7445,0,0,2.7283,2.7314,2.7321,2.7334,2.7356,2.7375,2.7401,2.7425,2.7438,2.7455,2.7477,2.7508,2.7501,2.7513,2.7514,2.7531,2.7566,2.7521,2.7521,2.7529,2.7608,2.7615,2.7622,2.7562,2.7564,2.7564,2.7607,0,2.7322,2.7371,2.7377,2.7419,2.7443,2.744,2.7463,2.7479,2.7487,2.7507,2.7514,2.7536,2.7525,2.7533,2.755,2.7558,2.7582,2.7555,2.7582,2.7583,2.7579,2.7629,2.7636,2.7676,2.7613,2.7614,2.7614,0,2.7374,2.7396,2.7441,2.7462,2.7472,2.7493,2.7516,2.7535,2.7553,2.7557,2.7572,2.7572,2.7598,2.7581,2.7617,2.7599,2.761,2.7616,2.7618,2.7621,2.7601,2.7634,2.7689,2.7695,2.7623,2.7622,2.7622,0,2.7402,2.7442,2.7475,2.7486,2.751,2.7525,2.7536,2.7553,2.7567,2.7587,2.7596,2.7618,2.7629,2.7646,2.7651,2.7638,2.7687,2.767,2.7691,2.7691,2.7702,2.7701,2.776,2.7708,2.7708,2.7708,2.7708,0,2.7446,2.7474,2.7488,2.7508,2.754,2.7546,2.7576,2.7586,2.7601,2.7623,2.7621,2.7641,2.7646,2.7667,2.767,2.77,2.7705,2.7709,2.771,2.771,2.7709,2.7718,2.7715,2.771,2.7709,2.7709,2.7709,0,2.7482,2.7493,2.7529,2.755,2.7556,2.7578,2.7596,2.7615,2.7623,2.765,2.7657,2.7669,2.7693,2.77,2.7728,2.773,2.7766,2.7763,2.776,2.7761,2.7782,2.778,2.7848,2.7857,2.7799,2.78,2.78,0,2.7509,2.7531,2.7556,2.7571,2.7584,2.7608,2.7623,2.763,2.7646,2.7669,2.7685,2.7709,2.7729,2.7768,2.7778,2.78,2.7798,2.7821,2.7802,2.7801,2.78,2.7799,2.7801,2.7824,2.7825,2.7826,2.7826,0,2.7557,2.7562,2.7585,2.7611,2.7629,2.7649,2.7668,2.768,2.769,2.7707,2.7733,2.7749,2.7779,2.7803,2.7826,2.7835,2.7832,2.7832,2.7838,2.7839,2.7836,2.7839,2.7771,2.783,2.783,2.783,2.7829,2.7829,2.759,2.761,2.7631,2.7657,2.7673,2.7691,2.7711,2.7722,2.7744,2.7771,2.7773,2.7801,2.7819,2.7849,2.786,2.7881,2.7875,2.7883,2.7886,2.7888,2.789,2.7833,2.7885,2.7885,2.7885,2.7885,2.7885,0,2.7638,2.7653,2.7677,2.7705,2.7725,2.7722,2.7743,2.776,2.7786,2.7803,2.7824,2.7854,2.7878,2.789,2.7914,2.7929,2.7928,2.7935,2.7934,2.7936,2.7895,2.7887,2.7935,2.7935,2.7935,2.7935,2.7935,2.7935,2.7666,2.77,2.7708,2.7749,2.7763,2.7792,2.7804,2.7821,2.7835,2.787,2.789,2.7899,2.7915,2.794,2.7961,2.7964,2.7973,2.7981,2.7983,2.7944,2.7939,2.7934,2.7928,2.7983,2.7983,2.8024,2.8024,2.8024]}]]